Weather History for CYYG - May, 2014

Change the Weather History Date:

Sunday, May 18, 2014

  Actual Average Record
Temperature  
Mean Temperature 58 °F -  
Max Temperature 66 °F 63 °F 71 °F (1999)
Min Temperature 50 °F 45 °F 33 °F (2005)
Degree Days  
Heating Degree Days 7    
Growing Degree Days 8 (Base 50)    
Moisture  
Dew Point 45 °F    
Average Humidity 66    
Maximum Humidity 94    
Minimum Humidity 36    
Precipitation  
Precipitation 0.00 in 0.12 in - ()
Sea Level Pressure  
Sea Level Pressure 30.14 in    
Wind  
Wind Speed 10 mph ()    
Max Wind Speed 17 mph    
Max Gust Speed 20 mph    
Visibility 15.0 miles    
Events      
Averages and records for this station are not official NWS values.
T = Trace of Precipitation, MM = Missing Value Source: Averaged Metar Reports

Daily Weather History Graph

Daily Weather History Graph

Search for Another Location

Airport or City:

Trip Planner

Search our weather history database for the weather conditions in past years. The results will help you decide how hot, cold, wet, or windy it might be!

Date:

Astronomy

May. 18, 2014 Rise Set
Actual Time 5:36 AM ADT 8:42 PM ADT
Civil Twilight 5:00 AM ADT 9:18 PM ADT
Nautical Twilight 4:14 AM ADT 10:04 PM ADT
Astronomical Twilight 3:17 AM ADT 11:01 PM ADT
Moon No Moon Rise 9:22 AM ADT (5/18)
Length of Visible Light 16h 18m
Length of Day
15h 06m
Waning Gibbous, 81% of the Moon is Illuminated
May 18
Waning Gibbous
May 21
Last Quarter
May 28
New
Jun 5
First Quarter
Jun 13
Full

Hourly Weather History & Observations

Time (ADT) Temp. Dew Point Humidity Pressure Visibility Wind Dir Wind Speed Gust Speed Precip Events Conditions
12:00 AM 55.4 °F 42.8 °F 63% 30.18 in 15.0 mi SSE 16.1 mph - N/A   Scattered Clouds
1:00 AM 53.6 °F 41.0 °F 62% 30.18 in 15.0 mi SSE 17.3 mph - N/A   Scattered Clouds
1:37 AM 51.8 °F 41.0 °F 67% 30.18 in 15.0 mi SSE 11.5 mph - N/A   Scattered Clouds
2:00 AM 51.8 °F 41.0 °F 67% 30.18 in 15.0 mi South 11.5 mph - N/A   Scattered Clouds
3:00 AM 51 °F 43 °F 65% 30.19 in 15 mi SE 8.1 mph - -   Mostly Cloudy
4:00 AM 51.8 °F 42.8 °F 71% 30.19 in 15.0 mi SSE 6.9 mph - N/A   Overcast
5:00 AM 51.8 °F 42.8 °F 71% 30.19 in 15.0 mi SE 5.8 mph - N/A   Mostly Cloudy
6:00 AM 50.0 °F 44.6 °F 82% 30.20 in 15.0 mi SSE 8.1 mph - N/A   Mostly Cloudy
7:00 AM 51.8 °F 42.8 °F 71% 30.20 in 15.0 mi SE 8.1 mph - N/A   Mostly Cloudy
8:00 AM 53.6 °F 39.2 °F 58% 30.20 in 15.0 mi South 9.2 mph - N/A   Mostly Cloudy
9:00 AM 54 °F 38 °F 43% 30.20 in 15 mi SSE 10.4 mph - -   Scattered Clouds
9:00 AM 53.6 °F 37.4 °F 54% 30.20 in 15.0 mi SSE 10.4 mph - N/A   Mostly Cloudy
10:00 AM 59.0 °F 37.4 °F 45% 30.19 in 15.0 mi SE 11.5 mph - N/A   Mostly Cloudy
11:00 AM 60.8 °F 33.8 °F 36% 30.17 in 15.0 mi SE 6.9 mph - N/A   Mostly Cloudy
12:00 PM 62.6 °F 42.8 °F 48% 30.15 in 15.0 mi ESE 10.4 mph - N/A   Scattered Clouds
1:00 PM 62.6 °F 50.0 °F 63% 30.13 in 15.0 mi ESE 12.7 mph - N/A   Scattered Clouds
2:00 PM 62.6 °F 51.8 °F 68% 30.12 in 15.0 mi ESE 15.0 mph - N/A   Scattered Clouds
3:00 PM 64 °F 53 °F 57% 30.10 in 15 mi ESE 10.4 mph - -   Scattered Clouds
3:00 PM 64.4 °F 51.8 °F 64% 30.09 in 15.0 mi SE 9.2 mph - N/A   Scattered Clouds
4:00 PM 66.2 °F 53.6 °F 64% 30.08 in 15.0 mi ESE 9.2 mph 17.3 mph N/A   Mostly Cloudy
5:00 PM 59.0 °F 50.0 °F 72% 30.09 in 15.0 mi ESE 16.1 mph - N/A   Mostly Cloudy
6:00 PM 59.0 °F 50.0 °F 72% 30.07 in 15.0 mi ESE 12.7 mph - N/A   Mostly Cloudy
7:00 PM 59.0 °F 50.0 °F 72% 30.06 in 15.0 mi East 13.8 mph 19.6 mph N/A   Mostly Cloudy
8:00 PM 57.2 °F 50.0 °F 77% 30.06 in 15.0 mi ESE 9.2 mph 19.6 mph N/A   Mostly Cloudy
9:00 PM 54 °F 49 °F 77% 30.05 in 15 mi ESE 12.7 mph - -   Partly Cloudy
9:00 PM 53.6 °F 48.2 °F 82% 30.05 in 15.0 mi ESE 13.8 mph - N/A   Mostly Cloudy
10:00 PM 50.0 °F 48.2 °F 94% 30.06 in 15.0 mi ESE 11.5 mph 18.4 mph N/A   Mostly Cloudy
11:00 PM 50.0 °F 46.4 °F 87% 30.04 in 15.0 mi ESE 8.1 mph - N/A   Mostly Cloudy